Chattanooga, TN

9:00 AM EDT on April 26, 2018 (GMT -0400)
Lovell

Weather History for KCHA - March, 2011

Change the Weather History Date:

Friday, March 18, 2011

  Actual Average Record
Temperature  
Mean Temperature 65 °F 53 °F  
Max Temperature 82 °F 64 °F 86 °F (1908)
Min Temperature 47 °F 41 °F 17 °F (1902)
Degree Days  
Heating Degree Days 0 12  
Month to date heating degree days 221 265  
Since 1 July heating degree days 2926 2887  
Cooling Degree Days 0 0  
Month to date cooling degree days 0 0  
Year to date cooling degree days 0 0  
Growing Degree Days 14 (Base 50)    
Moisture  
Dew Point 47 °F    
Average Humidity 55    
Maximum Humidity 86    
Minimum Humidity 24    
Precipitation  
Precipitation 0.00 in 0.16 in 3.06 in (1899)
Month to date precipitation 7.53 2.89  
Year to date precipitation 14.04 12.64  
Snow  
Snow 0.00 in 0.00 in - ()
Month to date snowfall 0.0 0.8  
Since 1 July snowfall 12.6 3.4  
Snow Depth 0.00 in    
Sea Level Pressure  
Sea Level Pressure 30.17 in    
Wind  
Wind Speed 4 mph (SSW)    
Max Wind Speed 16 mph    
Max Gust Speed 22 mph    
Visibility 10 miles    
Events      
T = Trace of Precipitation, MM = Missing Value Source: NWS Daily Summary

Daily Weather History Graph

Daily Weather History Graph

Search for Another Location

Airport or City:

Astronomy

Mar. 18, 2011 Rise Set
Actual Time 7:47 AM EDT 7:50 PM EDT
Civil Twilight 7:22 AM EDT 8:15 PM EDT
Nautical Twilight 6:52 AM EDT 8:45 PM EDT
Astronomical Twilight 6:23 AM EDT 9:15 PM EDT
Moon 6:58 PM EDT (3/18) 6:42 AM EDT (3/18)
Length of Visible Light 12h 53m
Length of Day
12h 03m
Waxing Gibbous, 98% of the Moon is Illuminated
Mar 18
Waxing Gibbous
Mar 19
Full
Mar 26
Last Quarter
Apr 3
New
Apr 11
First Quarter

Hourly Weather History & Observations

Time (EDT) Temp. Dew Point Humidity Pressure Visibility Wind Dir Wind Speed Gust Speed Precip Events Conditions
12:53 AM 59.0 °F 43.0 °F 55% 30.19 in 10.0 mi South 3.5 mph - N/A   Clear
1:53 AM 60.1 °F 43.0 °F 53% 30.18 in 10.0 mi South 5.8 mph - N/A   Clear
2:53 AM 54.0 °F 44.1 °F 69% 30.19 in 10.0 mi SSW 3.5 mph - N/A   Clear
3:53 AM 51.1 °F 45.0 °F 80% 30.20 in 10.0 mi Calm Calm - N/A   Clear
4:53 AM 50.0 °F 44.1 °F 80% 30.20 in 10.0 mi Calm Calm - N/A   Clear
5:53 AM 48.9 °F 44.1 °F 83% 30.20 in 10.0 mi Calm Calm - N/A   Clear
6:53 AM 46.9 °F 43.0 °F 86% 30.22 in 10.0 mi Calm Calm - N/A   Clear
7:53 AM 48.0 °F 44.1 °F 86% 30.23 in 10.0 mi Calm Calm - N/A   Clear
8:53 AM 52.0 °F 46.0 °F 80% 30.24 in 10.0 mi Calm Calm - N/A   Clear
9:53 AM 61.0 °F 46.9 °F 60% 30.25 in 10.0 mi Calm Calm - N/A   Clear
10:53 AM 66.0 °F 46.9 °F 50% 30.24 in 10.0 mi SSW 3.5 mph - N/A   Partly Cloudy
11:53 AM 72.0 °F 51.1 °F 48% 30.23 in 10.0 mi Variable 4.6 mph - N/A   Partly Cloudy
12:53 PM 73.9 °F 51.1 °F 45% 30.20 in 10.0 mi Calm Calm - N/A   Partly Cloudy
1:53 PM 77.0 °F 51.1 °F 40% 30.17 in 10.0 mi Variable 4.6 mph - N/A   Partly Cloudy
2:53 PM 80.1 °F 50.0 °F 35% 30.14 in 10.0 mi South 9.2 mph - N/A   Partly Cloudy
3:53 PM 81.0 °F 46.9 °F 30% 30.12 in 10.0 mi SSW 15.0 mph 20.7 mph N/A   Partly Cloudy
4:53 PM 81.0 °F 45.0 °F 28% 30.10 in 10.0 mi WSW 10.4 mph 17.3 mph N/A   Clear
5:53 PM 82.0 °F 42.1 °F 24% 30.09 in 10.0 mi SW 12.7 mph 17.3 mph N/A   Clear
6:53 PM 81.0 °F 42.1 °F 25% 30.10 in 10.0 mi SW 10.4 mph - N/A   Clear
7:53 PM 77.0 °F 46.9 °F 34% 30.11 in 10.0 mi SSW 5.8 mph - N/A   Clear
8:53 PM 72.0 °F 48.9 °F 44% 30.12 in 10.0 mi SSW 3.5 mph - N/A   Clear
9:53 PM 66.0 °F 51.1 °F 59% 30.14 in 10.0 mi Calm Calm - N/A   Clear
10:53 PM 64.9 °F 50.0 °F 58% 30.16 in 10.0 mi Calm Calm - N/A   Clear
11:53 PM 62.1 °F 51.1 °F 67% 30.16 in 10.0 mi Calm Calm - N/A   Mostly Cloudy